Location: Doverdale
(52.2833°N, 2.2000°W)
Time: 02:08:04
(UTC+00:00)

Cosmos 1980 Rocket - Pass Details

Date: 06 March 2021
Orbit: 828 x 851 km, 71.0° (Epoch: 15 April)

Event Time Altitude Azimuth Distance (km) Brightness Sun altitude
Rises 01:25:30 0° 329° (NNW) 3,429 5.8 -41.4°
Reaches altitude 10° 01:28:00 10° 334° (NNW) 2,491 5.0 -41.3°
Enters shadow 01:28:24 12° 335° (NNW) 2,345 4.8 -41.3°
